Time,TemperatureF,DewpointF,PressureIn,WindDirection,WindDirectionDegrees,WindSpeedMPH,WindSpeedGustMPH,Humidity,HourlyPrecipIn,Conditions,Clouds,dailyrainin,SoftwareType,DateUTC
2013-03-03 00:04:00,20.8,18.3,29.81,NNE,29,4.0,4.0,90,0.00,,,0.00,Wunderground v.1.15,2013-03-03 05:04:00,
2013-03-03 00:09:00,20.8,18.3,29.81,NNE,13,4.0,4.0,90,0.00,,,0.00,Wunderground v.1.15,2013-03-03 05:09:00,
2013-03-03 00:14:00,20.7,18.2,29.81,NNE,30,4.0,6.0,90,0.00,,,0.00,Wunderground v.1.15,2013-03-03 05:14:00,
2013-03-03 00:19:00,20.6,18.1,29.81,NNE,22,5.0,5.0,90,0.00,,,0.00,Wunderground v.1.15,2013-03-03 05:19:00,
2013-03-03 00:24:00,20.6,18.1,29.81,NNE,27,5.0,5.0,90,0.00,,,0.00,Wunderground v.1.15,2013-03-03 05:24:00,
2013-03-03 00:29:00,20.6,18.1,29.81,NNE,26,4.0,4.0,90,0.00,,,0.00,Wunderground v.1.15,2013-03-03 05:29:00,
2013-03-03 00:39:00,20.6,18.1,29.81,North,5,3.0,7.0,90,0.00,,,0.00,Wunderground v.1.15,2013-03-03 05:39:00,
2013-03-03 00:44:00,20.5,18.0,29.81,North,9,3.0,7.0,90,0.00,,,0.00,Wunderground v.1.15,2013-03-03 05:44:00,
2013-03-03 00:49:00,20.3,17.8,29.81,North,5,4.0,4.0,90,0.00,,,0.00,Wunderground v.1.15,2013-03-03 05:49:00,
2013-03-03 00:54:00,20.2,17.7,29.82,North,11,4.0,5.0,90,0.00,,,0.00,Wunderground v.1.15,2013-03-03 05:54:00,
2013-03-03 01:00:00,20.1,17.6,29.81,North,360,3.0,3.0,90,0.00,,,0.00,Wunderground v.1.15,2013-03-03 06:00:00,
2013-03-03 01:05:00,20.1,17.6,29.81,North,10,3.0,5.0,90,0.00,,,0.00,Wunderground v.1.15,2013-03-03 06:05:00,
2013-03-03 01:10:00,20.0,17.5,29.81,NNE,19,3.0,5.0,90,0.00,,,0.00,Wunderground v.1.15,2013-03-03 06:10:00,
2013-03-03 01:15:00,20.0,17.5,29.81,NW,317,3.0,5.0,90,0.00,,,0.00,Wunderground v.1.15,2013-03-03 06:15:00,
2013-03-03 01:20:00,20.0,17.5,29.82,North,11,3.0,3.0,90,0.00,,,0.00,Wunderground v.1.15,2013-03-03 06:20:00,
2013-03-03 01:25:00,19.9,17.4,29.81,NNE,14,3.0,3.0,90,0.00,,,0.00,Wunderground v.1.15,2013-03-03 06:25:00,
2013-03-03 01:30:00,19.8,17.3,29.81,NNW,346,3.0,5.0,90,0.00,,,0.00,Wunderground v.1.15,2013-03-03 06:30:00,
2013-03-03 01:35:00,19.7,17.2,29.81,NNE,12,4.0,7.0,90,0.00,,,0.00,Wunderground v.1.15,2013-03-03 06:35:00,
2013-03-03 01:45:00,19.7,17.2,29.81,North,9,3.0,7.0,90,0.00,,,0.00,Wunderground v.1.15,2013-03-03 06:45:00,
2013-03-03 01:50:00,19.7,17.2,29.81,North,355,3.0,3.0,90,0.00,,,0.00,Wunderground v.1.15,2013-03-03 06:50:00,
2013-03-03 01:55:00,19.7,17.2,29.81,NNW,343,3.0,7.0,90,0.00,,,0.00,Wunderground v.1.15,2013-03-03 06:55:00,
2013-03-03 02:00:00,19.6,17.1,29.81,NNW,336,3.0,4.0,90,0.00,,,0.00,Wunderground v.1.15,2013-03-03 07:00:00,
2013-03-03 02:05:00,19.7,17.2,29.80,NNW,343,3.0,4.0,90,0.00,,,0.00,Wunderground v.1.15,2013-03-03 07:05:00,
2013-03-03 02:10:00,19.6,17.1,29.80,NNW,345,3.0,3.0,90,0.00,,,0.00,Wunderground v.1.15,2013-03-03 07:10:00,
2013-03-03 02:15:00,19.6,17.1,29.81,NNW,339,3.0,3.0,90,0.00,,,0.00,Wunderground v.1.15,2013-03-03 07:15:00,
2013-03-03 02:20:00,19.6,17.1,29.80,NNW,345,3.0,3.0,90,0.00,,,0.00,Wunderground v.1.15,2013-03-03 07:20:00,
2013-03-03 02:25:00,19.5,17.0,29.80,North,360,3.0,5.0,90,0.00,,,0.00,Wunderground v.1.15,2013-03-03 07:25:00,
2013-03-03 02:30:00,19.5,17.0,29.80,NNW,336,3.0,4.0,90,0.00,,,0.00,Wunderground v.1.15,2013-03-03 07:30:00,
2013-03-03 02:40:00,19.4,16.9,29.80,NNW,348,3.0,3.0,90,0.00,,,0.00,Wunderground v.1.15,2013-03-03 07:40:00,
2013-03-03 02:45:00,19.4,16.9,29.79,North,5,3.0,7.0,90,0.00,,,0.00,Wunderground v.1.15,2013-03-03 07:45:00,
2013-03-03 02:50:00,19.3,16.8,29.79,North,349,4.0,7.0,90,0.00,,,0.00,Wunderground v.1.15,2013-03-03 07:50:00,
2013-03-03 02:55:00,19.3,16.8,29.79,NNE,13,3.0,7.0,90,0.00,,,0.00,Wunderground v.1.15,2013-03-03 07:55:00,
2013-03-03 03:00:00,19.3,16.8,29.79,NNE,26,3.0,3.0,90,0.00,,,0.00,Wunderground v.1.15,2013-03-03 08:00:00,
2013-03-03 03:10:00,19.1,16.7,29.79,NNW,344,3.0,3.0,90,0.00,,,0.00,Wunderground v.1.15,2013-03-03 08:10:00,
2013-03-03 03:15:00,19.1,16.9,29.79,NNW,348,2.0,3.0,91,0.00,,,0.00,Wunderground v.1.15,2013-03-03 08:15:00,
2013-03-03 03:20:00,19.1,16.9,29.79,NNW,344,2.0,3.0,91,0.00,,,0.00,Wunderground v.1.15,2013-03-03 08:20:00,
2013-03-03 03:25:00,19.0,16.8,29.79,NNW,333,2.0,3.0,91,0.00,,,0.00,Wunderground v.1.15,2013-03-03 08:25:00,
2013-03-03 03:30:00,19.0,16.6,29.79,NNW,332,2.0,2.0,90,0.00,,,0.00,Wunderground v.1.15,2013-03-03 08:30:00,
2013-03-03 03:35:00,18.9,16.5,29.78,NW,323,2.0,6.0,90,0.00,,,0.00,Wunderground v.1.15,2013-03-03 08:35:00,
2013-03-03 03:45:00,18.8,16.4,29.79,NNW,331,2.0,6.0,90,0.00,,,0.00,Wunderground v.1.15,2013-03-03 08:45:00,
2013-03-03 03:50:00,18.7,16.3,29.79,North,350,2.0,6.0,90,0.00,,,0.00,Wunderground v.1.15,2013-03-03 08:50:00,
2013-03-03 03:55:00,18.7,16.3,29.79,NW,319,2.0,6.0,90,0.00,,,0.00,Wunderground v.1.15,2013-03-03 08:55:00,
2013-03-03 04:00:00,18.7,16.3,29.79,NW,321,2.0,2.0,90,0.00,,,0.00,Wunderground v.1.15,2013-03-03 09:00:00,
2013-03-03 04:10:00,18.7,16.3,29.79,NNW,338,2.0,3.0,90,0.00,,,0.00,Wunderground v.1.15,2013-03-03 09:10:00,
2013-03-03 04:20:00,18.8,16.4,29.79,NNW,343,3.0,3.0,90,0.00,,,0.00,Wunderground v.1.15,2013-03-03 09:20:00,
2013-03-03 04:25:00,18.8,16.4,29.79,NNW,339,2.0,3.0,90,0.00,,,0.00,Wunderground v.1.15,2013-03-03 09:25:00,
2013-03-03 04:30:00,18.8,16.4,29.79,NNW,342,2.0,2.0,90,0.00,,,0.00,Wunderground v.1.15,2013-03-03 09:30:00,
2013-03-03 04:35:00,18.9,16.5,29.80,North,355,3.0,3.0,90,0.00,,,0.00,Wunderground v.1.15,2013-03-03 09:35:00,
2013-03-03 04:40:00,18.8,16.4,29.80,NNW,335,3.0,3.0,90,0.00,,,0.00,Wunderground v.1.15,2013-03-03 09:40:00,
2013-03-03 04:50:00,18.9,16.5,29.80,NNW,340,2.0,2.0,90,0.00,,,0.00,Wunderground v.1.15,2013-03-03 09:50:00,
2013-03-03 04:55:00,18.8,16.4,29.80,NW,326,2.0,5.0,90,0.00,,,0.00,Wunderground v.1.15,2013-03-03 09:55:00,
2013-03-03 05:00:00,18.7,16.3,29.80,NW,324,2.0,2.0,90,0.00,,,0.00,Wunderground v.1.15,2013-03-03 10:00:00,
2013-03-03 05:10:00,18.5,16.1,29.80,North,355,2.0,2.0,90,0.00,,,0.00,Wunderground v.1.15,2013-03-03 10:10:00,
2013-03-03 05:15:00,18.5,16.1,29.80,NNW,338,2.0,4.0,90,0.00,,,0.00,Wunderground v.1.15,2013-03-03 10:15:00,
2013-03-03 05:25:00,18.3,15.6,29.80,NNW,344,1.0,2.0,89,0.00,,,0.00,Wunderground v.1.15,2013-03-03 10:25:00,
2013-03-03 05:30:00,18.2,15.8,29.80,NNW,343,1.0,1.0,90,0.00,,,0.00,Wunderground v.1.15,2013-03-03 10:30:00,
2013-03-03 05:35:00,18.1,15.4,29.80,NNW,339,1.0,5.0,89,0.00,,,0.00,Wunderground v.1.15,2013-03-03 10:35:00,
2013-03-03 05:40:00,17.8,15.1,29.80,NNW,339,0.0,5.0,89,0.00,,,0.00,Wunderground v.1.15,2013-03-03 10:40:00,
2013-03-03 05:45:00,17.6,14.9,29.80,NNW,339,0.0,5.0,89,0.00,,,0.00,Wunderground v.1.15,2013-03-03 10:45:00,
2013-03-03 05:55:00,17.3,14.6,29.80,NW,321,0.0,5.0,89,0.00,,,0.00,Wunderground v.1.15,2013-03-03 10:55:00,
2013-03-03 06:00:00,17.3,14.9,29.80,NW,321,0.0,0.0,90,0.00,,,0.00,Wunderground v.1.15,2013-03-03 11:00:00,
2013-03-03 06:10:00,17.0,14.6,29.80,NW,321,0.0,0.0,90,0.00,,,0.00,Wunderground v.1.15,2013-03-03 11:10:00,
2013-03-03 06:15:00,16.8,14.4,29.80,NW,321,0.0,0.0,90,0.00,,,0.00,Wunderground v.1.15,2013-03-03 11:15:00,
2013-03-03 06:20:00,16.7,14.3,29.80,NW,321,0.0,0.0,90,0.00,,,0.00,Wunderground v.1.15,2013-03-03 11:20:00,
2013-03-03 06:30:00,16.5,14.1,29.80,NW,321,0.0,0.0,90,0.00,,,0.00,Wunderground v.1.15,2013-03-03 11:30:00,
2013-03-03 06:35:00,16.4,14.0,29.80,NW,321,0.0,4.0,90,0.00,,,0.00,Wunderground v.1.15,2013-03-03 11:35:00,
2013-03-03 06:40:00,16.5,14.1,29.80,NW,321,0.0,4.0,90,0.00,,,0.00,Wunderground v.1.15,2013-03-03 11:40:00,
2013-03-03 06:45:00,16.5,14.1,29.80,NW,321,0.0,4.0,90,0.00,,,0.00,Wunderground v.1.15,2013-03-03 11:45:00,
2013-03-03 06:50:00,16.4,14.0,29.81,NW,321,0.0,4.0,90,0.00,,,0.00,Wunderground v.1.15,2013-03-03 11:50:00,
2013-03-03 07:00:00,16.7,14.5,29.81,NW,321,0.0,0.0,91,0.00,,,0.00,Wunderground v.1.15,2013-03-03 12:00:00,
2013-03-03 07:10:00,17.0,14.8,29.81,NW,321,0.0,0.0,91,0.00,,,0.00,Wunderground v.1.15,2013-03-03 12:10:00,
2013-03-03 07:15:00,17.2,15.0,29.81,NW,321,0.0,0.0,91,0.00,,,0.00,Wunderground v.1.15,2013-03-03 12:15:00,
2013-03-03 07:20:00,17.3,14.9,29.81,NW,321,0.0,0.0,90,0.00,,,0.00,Wunderground v.1.15,2013-03-03 12:20:00,
2013-03-03 07:25:00,17.4,15.0,29.81,NW,321,0.0,1.0,90,0.00,,,0.00,Wunderground v.1.15,2013-03-03 12:25:00,
2013-03-03 07:35:00,17.7,15.3,29.81,NW,321,0.0,3.0,90,0.00,,,0.00,Wunderground v.1.15,2013-03-03 12:35:00,
2013-03-03 07:40:00,17.9,15.5,29.81,NW,322,0.0,3.0,90,0.00,,,0.00,Wunderground v.1.15,2013-03-03 12:40:00,
2013-03-03 07:45:00,18.0,15.6,29.82,NW,313,1.0,3.0,90,0.00,,,0.00,Wunderground v.1.15,2013-03-03 12:45:00,
2013-03-03 07:50:00,18.2,15.8,29.81,NW,314,1.0,3.0,90,0.00,,,0.00,Wunderground v.1.15,2013-03-03 12:50:00,
2013-03-03 07:55:00,18.4,16.0,29.81,NW,325,2.0,3.0,90,0.00,,,0.00,Wunderground v.1.15,2013-03-03 12:55:00,
2013-03-03 08:00:00,18.6,15.9,29.82,North,351,2.0,3.0,89,0.00,,,0.00,Wunderground v.1.15,2013-03-03 13:00:00,
2013-03-03 08:10:00,18.9,16.2,29.81,North,350,3.0,3.0,89,0.00,,,0.00,Wunderground v.1.15,2013-03-03 13:10:00,
2013-03-03 08:15:00,19.0,16.0,29.81,NNE,13,3.0,4.0,88,0.00,,,0.00,Wunderground v.1.15,2013-03-03 13:15:00,
2013-03-03 08:20:00,19.1,16.1,29.81,NNW,343,3.0,3.0,88,0.00,,,0.00,Wunderground v.1.15,2013-03-03 13:20:00,
2013-03-03 08:25:00,19.1,15.9,29.81,North,360,4.0,4.0,87,0.00,,,0.00,Wunderground v.1.15,2013-03-03 13:25:00,
2013-03-03 08:30:00,19.3,16.1,29.81,North,10,4.0,5.0,87,0.00,,,0.00,Wunderground v.1.15,2013-03-03 13:30:00,
2013-03-03 08:40:00,19.5,16.3,29.81,North,11,4.0,5.0,87,0.00,,,0.00,Wunderground v.1.15,2013-03-03 13:40:00,
2013-03-03 08:45:00,19.6,16.1,29.81,NNE,26,4.0,5.0,86,0.00,,,0.00,Wunderground v.1.15,2013-03-03 13:45:00,
2013-03-03 08:50:00,19.6,16.1,29.81,NNW,343,4.0,4.0,86,0.00,,,0.00,Wunderground v.1.15,2013-03-03 13:50:00,
2013-03-03 08:55:00,19.7,16.2,29.81,NNW,336,4.0,5.0,86,0.00,,,0.00,Wunderground v.1.15,2013-03-03 13:55:00,
2013-03-03 09:00:00,19.8,16.0,29.81,North,5,3.0,3.0,85,0.00,,,0.00,Wunderground v.1.15,2013-03-03 14:00:00,
2013-03-03 09:10:00,20.0,16.2,29.81,NNW,346,3.0,3.0,85,0.00,,,0.00,Wunderground v.1.15,2013-03-03 14:10:00,
2013-03-03 09:15:00,20.1,16.3,29.80,NNW,327,3.0,5.0,85,0.00,,,0.00,Wunderground v.1.15,2013-03-03 14:15:00,
2013-03-03 09:20:00,20.2,16.4,29.80,North,5,3.0,4.0,85,0.00,,,0.00,Wunderground v.1.15,2013-03-03 14:20:00,
2013-03-03 09:25:00,20.3,16.5,29.80,NNW,344,3.0,4.0,85,0.00,,,0.00,Wunderground v.1.15,2013-03-03 14:25:00,
2013-03-03 09:30:00,20.3,16.2,29.80,NW,306,4.0,4.0,84,0.00,,,0.00,Wunderground v.1.15,2013-03-03 14:30:00,
2013-03-03 09:35:00,20.3,16.2,29.80,NNW,333,4.0,5.0,84,0.00,,,0.00,Wunderground v.1.15,2013-03-03 14:35:00,
2013-03-03 09:45:00,20.4,16.1,29.79,NNW,348,4.0,8.0,83,0.00,,,0.00,Wunderground v.1.15,2013-03-03 14:45:00,
2013-03-03 09:50:00,20.6,16.5,29.79,North,360,4.0,8.0,84,0.00,,,0.00,Wunderground v.1.15,2013-03-03 14:50:00,
2013-03-03 09:55:00,20.5,16.2,29.79,NW,312,4.0,8.0,83,0.00,,,0.00,Wunderground v.1.15,2013-03-03 14:55:00,
2013-03-03 10:00:00,20.6,16.3,29.79,NW,312,4.0,6.0,83,0.00,,,0.00,Wunderground v.1.15,2013-03-03 15:00:00,
2013-03-03 10:10:00,20.8,16.5,29.79,NW,317,4.0,7.0,83,0.00,,,0.00,Wunderground v.1.15,2013-03-03 15:10:00,
2013-03-03 10:15:00,20.8,16.2,29.79,NNW,327,3.0,7.0,82,0.00,,,0.00,Wunderground v.1.15,2013-03-03 15:15:00,
2013-03-03 10:20:00,20.8,16.2,29.79,NW,319,4.0,4.0,82,0.00,,,0.00,Wunderground v.1.15,2013-03-03 15:20:00,
2013-03-03 10:25:00,21.0,16.6,29.79,NNW,333,4.0,4.0,83,0.00,,,0.00,Wunderground v.1.15,2013-03-03 15:25:00,
2013-03-03 10:30:00,21.3,16.9,29.80,North,360,3.0,3.0,83,0.00,,,0.00,Wunderground v.1.15,2013-03-03 15:30:00,
2013-03-03 10:35:00,21.3,16.7,29.80,NW,318,3.0,5.0,82,0.00,,,0.00,Wunderground v.1.15,2013-03-03 15:35:00,
2013-03-03 10:40:00,21.3,16.4,29.80,NNW,338,3.0,8.0,81,0.00,,,0.00,Wunderground v.1.15,2013-03-03 15:40:00,
2013-03-03 10:50:00,21.7,17.1,29.80,North,355,3.0,8.0,82,0.00,,,0.00,Wunderground v.1.15,2013-03-03 15:50:00,
2013-03-03 10:55:00,21.7,16.8,29.80,NW,314,3.0,8.0,81,0.00,,,0.00,Wunderground v.1.15,2013-03-03 15:55:00,
2013-03-03 11:00:00,21.8,16.9,29.80,NW,306,3.0,3.0,81,0.00,,,0.00,Wunderground v.1.15,2013-03-03 16:00:00,
2013-03-03 11:10:00,21.8,16.6,29.80,NNW,333,4.0,4.0,80,0.00,,,0.00,Wunderground v.1.15,2013-03-03 16:10:00,
2013-03-03 11:19:00,22.5,17.3,29.80,North,355,3.0,4.0,80,0.00,,,0.01,Wunderground v.1.15,2013-03-03 16:19:00,
2013-03-03 11:24:00,22.5,17.0,29.80,North,355,3.0,4.0,79,0.00,,,0.01,Wunderground v.1.15,2013-03-03 16:24:00,
2013-03-03 11:29:00,22.7,17.5,29.79,North,355,3.0,4.0,80,0.00,,,0.01,Wunderground v.1.15,2013-03-03 16:29:00,
2013-03-03 11:34:00,22.7,17.2,29.79,NNE,22,3.0,8.0,79,0.00,,,0.01,Wunderground v.1.15,2013-03-03 16:34:00,
2013-03-03 11:39:00,22.9,17.7,29.79,NNW,327,3.0,8.0,80,0.00,,,0.01,Wunderground v.1.15,2013-03-03 16:39:00,
2013-03-03 11:44:00,22.8,17.3,29.79,NW,308,4.0,8.0,79,0.00,,,0.01,Wunderground v.1.15,2013-03-03 16:44:00,
2013-03-03 11:50:00,22.8,17.3,29.79,WNW,286,4.0,8.0,79,0.00,,,0.01,Wunderground v.1.15,2013-03-03 16:50:00,
2013-03-03 11:55:00,22.8,17.3,29.78,NNW,327,4.0,8.0,79,0.00,,,0.01,Wunderground v.1.15,2013-03-03 16:55:00,
2013-03-03 12:00:00,23.1,17.8,29.78,NW,306,4.0,4.0,80,0.00,,,0.01,Wunderground v.1.15,2013-03-03 17:00:00,
2013-03-03 12:09:00,23.4,17.6,29.78,WNW,301,3.0,4.0,78,0.00,,,0.01,Wunderground v.1.15,2013-03-03 17:09:00,
2013-03-03 12:14:00,23.4,17.6,29.78,WNW,296,5.0,6.0,78,0.00,,,0.01,Wunderground v.1.15,2013-03-03 17:14:00,
2013-03-03 12:20:00,23.4,17.6,29.78,NW,315,5.0,5.0,78,0.00,,,0.01,Wunderground v.1.15,2013-03-03 17:20:00,
2013-03-03 12:25:00,23.4,17.6,29.78,NW,322,5.0,5.0,78,0.00,,,0.01,Wunderground v.1.15,2013-03-03 17:25:00,
2013-03-03 12:30:00,23.4,17.3,29.78,NNW,331,5.0,6.0,77,0.00,,,0.01,Wunderground v.1.15,2013-03-03 17:30:00,
2013-03-03 12:35:00,23.6,17.4,29.78,North,360,5.0,8.0,77,0.00,,,0.01,Wunderground v.1.15,2013-03-03 17:35:00,
2013-03-03 12:40:00,23.6,17.4,29.78,North,355,4.0,4.0,77,0.00,,,0.01,Wunderground v.1.15,2013-03-03 17:40:00,
2013-03-03 12:45:00,23.8,17.6,29.78,NW,323,4.0,8.0,77,0.00,,,0.01,Wunderground v.1.15,2013-03-03 17:45:00,
2013-03-03 12:55:00,24.2,17.7,29.77,NNW,338,4.0,8.0,76,0.00,,,0.01,Wunderground v.1.15,2013-03-03 17:55:00,
2013-03-03 13:00:00,24.1,17.6,29.77,North,360,5.0,9.0,76,0.00,,,0.01,Wunderground v.1.15,2013-03-03 18:00:00,
2013-03-03 13:10:00,24.3,18.1,29.77,North,5,5.0,5.0,77,0.00,,,0.01,Wunderground v.1.15,2013-03-03 18:10:00,
2013-03-03 13:15:00,24.3,17.8,29.76,North,5,5.0,5.0,76,0.00,,,0.01,Wunderground v.1.15,2013-03-03 18:15:00,
2013-03-03 13:20:00,24.3,17.8,29.76,NW,319,5.0,7.0,76,0.00,,,0.01,Wunderground v.1.15,2013-03-03 18:20:00,
2013-03-03 13:30:00,24.5,18.0,29.76,NNW,347,4.0,4.0,76,0.00,,,0.01,Wunderground v.1.15,2013-03-03 18:30:00,
2013-03-03 13:35:00,24.8,18.0,29.76,North,5,4.0,10.0,75,0.00,,,0.01,Wunderground v.1.15,2013-03-03 18:35:00,
2013-03-03 13:40:00,24.7,17.9,29.76,NNW,327,4.0,10.0,75,0.00,,,0.01,Wunderground v.1.15,2013-03-03 18:40:00,
2013-03-03 13:45:00,25.0,18.5,29.76,North,355,4.0,10.0,76,0.00,,,0.01,Wunderground v.1.15,2013-03-03 18:45:00,
2013-03-03 13:50:00,25.3,18.5,29.76,NW,323,4.0,10.0,75,0.00,,,0.01,Wunderground v.1.15,2013-03-03 18:50:00,
2013-03-03 14:00:00,25.6,18.5,29.76,NNW,331,4.0,6.0,74,0.00,,,0.01,Wunderground v.1.15,2013-03-03 19:00:00,
2013-03-03 14:10:00,25.5,18.4,29.76,West,278,4.0,4.0,74,0.00,,,0.01,Wunderground v.1.15,2013-03-03 19:10:00,
2013-03-03 14:15:00,25.7,18.6,29.75,NW,326,3.0,4.0,74,0.00,,,0.01,Wunderground v.1.15,2013-03-03 19:15:00,
2013-03-03 14:20:00,25.6,18.1,29.76,NNW,341,4.0,4.0,73,0.00,,,0.01,Wunderground v.1.15,2013-03-03 19:20:00,
2013-03-03 14:25:00,25.8,18.7,29.75,West,261,4.0,4.0,74,0.00,,,0.01,Wunderground v.1.15,2013-03-03 19:25:00,
2013-03-03 14:35:00,25.9,18.4,29.75,NW,316,3.0,9.0,73,0.00,,,0.01,Wunderground v.1.15,2013-03-03 19:35:00,
2013-03-03 14:40:00,25.6,18.1,29.75,NW,325,5.0,5.0,73,0.00,,,0.01,Wunderground v.1.15,2013-03-03 19:40:00,
2013-03-03 14:45:00,25.6,18.5,29.75,NNW,331,5.0,11.0,74,0.00,,,0.01,Wunderground v.1.15,2013-03-03 19:45:00,
2013-03-03 14:50:00,25.5,18.4,29.75,NNW,331,5.0,5.0,74,0.00,,,0.01,Wunderground v.1.15,2013-03-03 19:50:00,
2013-03-03 14:55:00,25.6,18.5,29.75,NW,325,6.0,7.0,74,0.00,,,0.01,Wunderground v.1.15,2013-03-03 19:55:00,
2013-03-03 15:00:00,25.5,18.4,29.75,NNW,329,5.0,5.0,74,0.00,,,0.01,Wunderground v.1.15,2013-03-03 20:00:00,
2013-03-03 15:10:00,25.6,18.5,29.75,NW,312,4.0,4.0,74,0.00,,,0.01,Wunderground v.1.15,2013-03-03 20:10:00,
2013-03-03 15:15:00,25.6,18.5,29.75,NNW,336,5.0,5.0,74,0.00,,,0.01,Wunderground v.1.15,2013-03-03 20:15:00,
2013-03-03 15:20:00,25.6,18.5,29.75,North,360,5.0,5.0,74,0.00,,,0.01,Wunderground v.1.15,2013-03-03 20:20:00,
2013-03-03 15:25:00,25.4,17.9,29.75,NW,313,5.0,5.0,73,0.00,,,0.01,Wunderground v.1.15,2013-03-03 20:25:00,
2013-03-03 15:30:00,25.5,18.4,29.75,NW,311,5.0,5.0,74,0.00,,,0.01,Wunderground v.1.15,2013-03-03 20:30:00,
2013-03-03 15:40:00,25.6,18.5,29.76,NNW,328,5.0,12.0,74,0.00,,,0.01,Wunderground v.1.15,2013-03-03 20:40:00,
2013-03-03 15:50:00,25.6,18.5,29.76,North,355,4.0,12.0,74,0.00,,,0.01,Wunderground v.1.15,2013-03-03 20:50:00,
2013-03-03 15:55:00,25.6,18.5,29.76,NW,306,5.0,12.0,74,0.00,,,0.01,Wunderground v.1.15,2013-03-03 20:55:00,
2013-03-03 16:00:00,25.6,18.5,29.76,NNW,333,5.0,5.0,74,0.00,,,0.01,Wunderground v.1.15,2013-03-03 21:00:00,
2013-03-03 16:10:00,25.5,18.7,29.76,NNW,335,4.0,7.0,75,0.00,,,0.01,Wunderground v.1.15,2013-03-03 21:10:00,
2013-03-03 16:15:00,25.4,18.6,29.76,NW,326,4.0,7.0,75,0.00,,,0.01,Wunderground v.1.15,2013-03-03 21:15:00,
2013-03-03 16:24:00,25.5,18.7,29.76,NW,319,5.0,5.0,75,0.00,,,0.01,Wunderground v.1.15,2013-03-03 21:24:00,
2013-03-03 16:29:00,25.5,19.0,29.76,NNW,348,4.0,4.0,76,0.00,,,0.01,Wunderground v.1.15,2013-03-03 21:29:00,
2013-03-03 16:35:00,25.5,19.0,29.76,NW,317,4.0,11.0,76,0.00,,,0.01,Wunderground v.1.15,2013-03-03 21:35:00,
2013-03-03 16:40:00,25.3,18.8,29.76,NNW,329,4.0,11.0,76,0.00,,,0.01,Wunderground v.1.15,2013-03-03 21:40:00,
2013-03-03 16:45:00,25.3,19.1,29.77,NW,318,5.0,11.0,77,0.00,,,0.01,Wunderground v.1.15,2013-03-03 21:45:00,
2013-03-03 16:50:00,25.2,19.0,29.77,NW,319,5.0,5.0,77,0.00,,,0.01,Wunderground v.1.15,2013-03-03 21:50:00,
2013-03-03 16:55:00,25.1,18.9,29.77,North,355,5.0,6.0,77,0.00,,,0.01,Wunderground v.1.15,2013-03-03 21:55:00,
2013-03-03 17:00:00,25.1,18.9,29.77,NW,322,5.0,7.0,77,0.00,,,0.01,Wunderground v.1.15,2013-03-03 22:00:00,
2013-03-03 17:10:00,25.1,18.9,29.77,NNW,329,5.0,5.0,77,0.00,,,0.01,Wunderground v.1.15,2013-03-03 22:10:00,
2013-03-03 17:15:00,25.1,19.2,29.77,North,355,4.0,5.0,78,0.00,,,0.01,Wunderground v.1.15,2013-03-03 22:15:00,
2013-03-03 17:20:00,25.1,19.2,29.77,North,351,3.0,5.0,78,0.00,,,0.01,Wunderground v.1.15,2013-03-03 22:20:00,
2013-03-03 17:25:00,24.9,19.0,29.77,North,5,4.0,7.0,78,0.00,,,0.01,Wunderground v.1.15,2013-03-03 22:25:00,
2013-03-03 17:35:00,24.5,18.9,29.77,NNE,13,4.0,9.0,79,0.00,,,0.01,Wunderground v.1.15,2013-03-03 22:35:00,
2013-03-03 17:40:00,24.3,19.0,29.78,NNE,31,4.0,4.0,80,0.00,,,0.01,Wunderground v.1.15,2013-03-03 22:40:00,
2013-03-03 17:44:00,24.2,19.2,29.78,NNW,348,4.0,9.0,81,0.00,,,0.01,Wunderground v.1.15,2013-03-03 22:44:00,
2013-03-03 17:50:00,24.0,19.0,29.78,NNE,21,4.0,9.0,81,0.00,,,0.01,Wunderground v.1.15,2013-03-03 22:50:00,
2013-03-03 17:55:00,23.9,18.9,29.78,NNW,343,5.0,9.0,81,0.00,,,0.01,Wunderground v.1.15,2013-03-03 22:55:00,
2013-03-03 18:00:00,23.9,18.9,29.78,NNE,20,5.0,5.0,81,0.00,,,0.01,Wunderground v.1.15,2013-03-03 23:00:00,
2013-03-03 18:10:00,23.7,19.0,29.78,North,5,4.0,4.0,82,0.00,,,0.01,Wunderground v.1.15,2013-03-03 23:10:00,
2013-03-03 18:15:00,23.7,19.0,29.78,NNE,23,5.0,6.0,82,0.00,,,0.01,Wunderground v.1.15,2013-03-03 23:15:00,
2013-03-03 18:25:00,23.5,19.1,29.78,NNW,331,5.0,6.0,83,0.00,,,0.01,Wunderground v.1.15,2013-03-03 23:25:00,
2013-03-03 18:30:00,23.4,19.0,29.78,NNW,343,5.0,5.0,83,0.00,,,0.01,Wunderground v.1.15,2013-03-03 23:30:00,
2013-03-03 18:35:00,23.3,19.2,29.79,NNW,348,4.0,8.0,84,0.00,,,0.01,Wunderground v.1.15,2013-03-03 23:35:00,
2013-03-03 18:40:00,23.3,19.2,29.78,North,360,4.0,8.0,84,0.00,,,0.01,Wunderground v.1.15,2013-03-03 23:40:00,
2013-03-03 18:45:00,23.1,19.3,29.78,North,351,4.0,8.0,85,0.00,,,0.01,Wunderground v.1.15,2013-03-03 23:45:00,
2013-03-03 18:55:00,22.9,19.3,29.79,NNE,12,3.0,8.0,86,0.00,,,0.01,Wunderground v.1.15,2013-03-03 23:55:00,
2013-03-03 19:00:00,22.8,19.2,29.79,North,355,3.0,6.0,86,0.00,,,0.01,Wunderground v.1.15,2013-03-04 00:00:00,
2013-03-03 19:10:00,22.7,19.4,29.79,NNW,338,3.0,3.0,87,0.00,,,0.01,Wunderground v.1.15,2013-03-04 00:10:00,
2013-03-03 19:15:00,22.6,19.3,29.79,North,355,4.0,4.0,87,0.00,,,0.01,Wunderground v.1.15,2013-03-04 00:15:00,
2013-03-03 19:20:00,22.6,19.3,29.79,NNW,342,4.0,4.0,87,0.00,,,0.01,Wunderground v.1.15,2013-03-04 00:20:00,
2013-03-03 19:30:00,22.6,19.3,29.79,North,355,4.0,4.0,87,0.00,,,0.01,Wunderground v.1.15,2013-03-04 00:30:00,
2013-03-03 19:35:00,22.5,19.2,29.79,North,360,4.0,7.0,87,0.00,,,0.01,Wunderground v.1.15,2013-03-04 00:35:00,
2013-03-03 19:40:00,22.5,18.9,29.79,NNE,20,4.0,9.0,86,0.00,,,0.01,Wunderground v.1.15,2013-03-04 00:40:00,
2013-03-03 19:45:00,22.5,19.2,29.79,North,360,4.0,9.0,87,0.00,,,0.01,Wunderground v.1.15,2013-03-04 00:45:00,
2013-03-03 19:50:00,22.5,19.2,29.79,NNE,13,3.0,9.0,87,0.00,,,0.01,Wunderground v.1.15,2013-03-04 00:50:00,
2013-03-03 20:00:00,22.5,18.9,29.79,NNW,348,4.0,4.0,86,0.00,,,0.01,Wunderground v.1.15,2013-03-04 01:00:00,
2013-03-03 20:10:00,22.4,19.1,29.79,NNW,333,4.0,4.0,87,0.00,,,0.01,Wunderground v.1.15,2013-03-04 01:10:00,
2013-03-03 20:15:00,22.4,19.1,29.79,NNW,337,4.0,4.0,87,0.00,,,0.01,Wunderground v.1.15,2013-03-04 01:15:00,
2013-03-03 20:20:00,22.4,19.1,29.79,NW,323,4.0,4.0,87,0.00,,,0.01,Wunderground v.1.15,2013-03-04 01:20:00,
2013-03-03 20:25:00,22.4,19.1,29.79,NW,321,4.0,5.0,87,0.00,,,0.01,Wunderground v.1.15,2013-03-04 01:25:00,
2013-03-03 20:30:00,22.4,19.1,29.79,WNW,303,4.0,4.0,87,0.00,,,0.01,Wunderground v.1.15,2013-03-04 01:30:00,
2013-03-03 20:35:00,22.4,19.1,29.79,NNW,340,4.0,9.0,87,0.00,,,0.01,Wunderground v.1.15,2013-03-04 01:35:00,
2013-03-03 20:40:00,22.5,19.2,29.79,NNW,338,3.0,9.0,87,0.00,,,0.01,Wunderground v.1.15,2013-03-04 01:40:00,
2013-03-03 20:45:00,22.5,19.5,29.79,NNW,346,3.0,9.0,88,0.00,,,0.01,Wunderground v.1.15,2013-03-04 01:45:00,
2013-03-03 20:50:00,22.5,19.5,29.79,NW,313,3.0,3.0,88,0.00,,,0.01,Wunderground v.1.15,2013-03-04 01:50:00,
2013-03-03 20:55:00,22.5,19.5,29.79,North,360,3.0,4.0,88,0.00,,,0.01,Wunderground v.1.15,2013-03-04 01:55:00,
2013-03-03 21:00:00,22.5,19.5,29.79,NNW,327,3.0,3.0,88,0.00,,,0.01,Wunderground v.1.15,2013-03-04 02:00:00,
2013-03-03 21:10:00,22.5,19.5,29.79,NNW,333,3.0,3.0,88,0.00,,,0.01,Wunderground v.1.15,2013-03-04 02:10:00,
2013-03-03 21:15:00,22.6,19.6,29.79,NNW,328,4.0,4.0,88,0.00,,,0.01,Wunderground v.1.15,2013-03-04 02:15:00,
2013-03-03 21:20:00,22.6,19.3,29.79,WNW,294,3.0,6.0,87,0.00,,,0.01,Wunderground v.1.15,2013-03-04 02:20:00,
2013-03-03 21:25:00,22.6,19.6,29.79,North,360,4.0,6.0,88,0.00,,,0.01,Wunderground v.1.15,2013-03-04 02:25:00,
2013-03-03 21:35:00,22.6,19.6,29.79,NW,317,3.0,8.0,88,0.00,,,0.01,Wunderground v.1.15,2013-03-04 02:35:00,
2013-03-03 21:40:00,22.6,19.6,29.79,NNW,337,3.0,8.0,88,0.00,,,0.01,Wunderground v.1.15,2013-03-04 02:40:00,
2013-03-03 21:45:00,22.6,19.6,29.79,NW,322,3.0,8.0,88,0.00,,,0.01,Wunderground v.1.15,2013-03-04 02:45:00,
2013-03-03 21:50:00,22.7,19.7,29.79,NNW,338,3.0,8.0,88,0.00,,,0.01,Wunderground v.1.15,2013-03-04 02:50:00,
2013-03-03 21:55:00,22.7,19.7,29.79,NNW,344,3.0,8.0,88,0.00,,,0.01,Wunderground v.1.15,2013-03-04 02:55:00,
2013-03-03 22:00:00,22.8,19.8,29.78,NW,316,3.0,3.0,88,0.00,,,0.01,Wunderground v.1.15,2013-03-04 03:00:00,
2013-03-03 22:10:00,22.8,19.8,29.78,NNW,329,3.0,3.0,88,0.00,,,0.01,Wunderground v.1.15,2013-03-04 03:10:00,
2013-03-03 22:15:00,22.8,19.8,29.78,NNE,15,3.0,5.0,88,0.00,,,0.01,Wunderground v.1.15,2013-03-04 03:15:00,
2013-03-03 22:20:00,22.8,19.8,29.77,NW,317,3.0,3.0,88,0.00,,,0.01,Wunderground v.1.15,2013-03-04 03:20:00,
2013-03-03 22:25:00,22.8,19.8,29.78,NNW,332,3.0,3.0,88,0.00,,,0.01,Wunderground v.1.15,2013-03-04 03:25:00,
2013-03-03 22:30:00,22.8,19.8,29.78,NNW,340,3.0,3.0,88,0.00,,,0.01,Wunderground v.1.15,2013-03-04 03:30:00,
2013-03-03 22:35:00,22.7,19.7,29.78,NNW,334,3.0,7.0,88,0.00,,,0.01,Wunderground v.1.15,2013-03-04 03:35:00,
2013-03-03 22:45:00,22.7,19.7,29.77,NNW,339,3.0,7.0,88,0.00,,,0.01,Wunderground v.1.15,2013-03-04 03:45:00,
2013-03-03 22:50:00,22.7,19.7,29.77,NNW,343,3.0,7.0,88,0.00,,,0.01,Wunderground v.1.15,2013-03-04 03:50:00,
2013-03-03 22:55:00,22.7,19.7,29.77,NNE,24,3.0,7.0,88,0.00,,,0.01,Wunderground v.1.15,2013-03-04 03:55:00,
2013-03-03 23:00:00,22.7,19.7,29.77,North,355,4.0,4.0,88,0.00,,,0.01,Wunderground v.1.15,2013-03-04 04:00:00,
2013-03-03 23:10:00,22.7,19.7,29.77,NNE,18,5.0,5.0,88,0.00,,,0.01,Wunderground v.1.15,2013-03-04 04:10:00,
2013-03-03 23:15:00,22.7,19.4,29.77,NNW,348,5.0,5.0,87,0.00,,,0.01,Wunderground v.1.15,2013-03-04 04:15:00,
2013-03-03 23:20:00,22.6,19.3,29.77,NNW,344,5.0,7.0,87,0.00,,,0.01,Wunderground v.1.15,2013-03-04 04:20:00,
2013-03-03 23:25:00,22.5,19.2,29.77,NE,38,6.0,7.0,87,0.00,,,0.01,Wunderground v.1.15,2013-03-04 04:25:00,
2013-03-03 23:30:00,22.4,19.1,29.77,North,5,7.0,7.0,87,0.00,,,0.01,Wunderground v.1.15,2013-03-04 04:30:00,
2013-03-03 23:35:00,22.4,18.8,29.77,North,5,6.0,8.0,86,0.00,,,0.01,Wunderground v.1.15,2013-03-04 04:35:00,
2013-03-03 23:40:00,22.5,19.2,29.77,NNW,340,6.0,8.0,87,0.00,,,0.01,Wunderground v.1.15,2013-03-04 04:40:00,
2013-03-03 23:45:00,22.4,18.8,29.77,North,5,6.0,8.0,86,0.00,,,0.01,Wunderground v.1.15,2013-03-04 04:45:00,
2013-03-03 23:50:00,22.1,18.6,29.77,NW,324,6.0,8.0,86,0.00,,,0.01,Wunderground v.1.15,2013-03-04 04:50:00,
2013-03-03 23:55:00,22.0,18.5,29.77,NNE,26,6.0,8.0,86,0.00,,,0.01,Wunderground v.1.15,2013-03-04 04:55:00,